Temp
71 66 64 70 74 72 71 68 67 73 80 72 71 72 76 81 80 79 81 82 85 84 86 84 79 78 78 76 74 72 69 68 69 70 69 68 67 67 66 65 63 63 63 63
69 61 72 76 74 69 68 65 65 72 76 74 72 70 76 80 80 81 80 81 83 84 83 80 76 75 74 73 72 71 69 68 71 73 73 72 69 68 67 65 62 62 61 61
64 69 75 71 69 66 65 64 65 66 72 75 71 67 72 78 81 82 83 83 84 83 81 77 72 71 71 71 71 71 70 70 72 73 70 69 67 65 64 63 63 60 60 59
66 73 69 67 66 67 61 72 69 66 63 58 73 57 70 76 78 79 80 80 82 83 83 79 73 70 70 71 71 72 72 71 71 69 68 65 66 65 67 65 62 60 59 58
61 65 63 62 65 70 63 70 65 65 62 62 63 60 67 76 73 78 79 80 81 83 83 79 74 72 72 71 69 70 71 71 68 67 69 67 68 65 65 62 59 58 57 57
64 74 69 67 70 69 70 65 63 63 61 50 60 61 63 69 72 75 79 79 79 81 82 82 77 74 72 72 69 69 68 68 67 67 67 66 66 63 61 60 59 59 58 56
61 63 70 69 62 66 64 58 48 48 48 47 65 62 65 70 72 72 72 75 76 78 78 78 73 71 70 68 66 66 66 65 66 65 65 65 63 62 60 60 59 57 55 53
56 51 65 69 62 60 60 59 49 40 44 52 63 56 64 69 71 71 70 71 73 71 72 73 74 71 69 65 64 63 64 63 63 62 62 61 60 59 58 56 56 55 53 51
54 54 66 65 68 65 59 54 63 50 52 43 51 60 66 65 65 65 63 65 66 68 68 68 71 69 67 63 62 61 63 61 60 60 58 58 58 56 54 53 52 51 50 50
58 49 62 63 64 65 61 63 49 48 34 36 48 52 52 57 61 61 62 62 63 64 64 66 68 67 66 65 64 62 63 60 59 57 56 54 53 53 51 50 49 49 49 50
61 56 54 59 56 57 57 53 54 54 48 39 39 47 56 54 58 60 61 63 63 63 64 64 66 67 67 65 63 61 59 58 54 53 53 51 49 49 49 48 48 49 50 49
59 53 47 52 60 62 60 56 56 44 42 46 44 45 59 58 59 60 60 62 64 66 66 66 66 66 65 63 61 58 57 52 52 51 49 47 47 48 47 47 48 49 49 49
54 45 40 45 51 56 52 51 50 51 49 42 38 42 59 58 58 59 57 60 63 64 65 64 65 64 63 61 59 53 49 48 48 48 47 45 44 47 47 48 48 49 49 47
51 44 39 35 32 35 34 38 41 38 34 37 40 42 47 49 52 55 58 60 62 63 63 63 61 60 59 58 55 51 49 49 48 47 46 42 42 46 46 47 48 47 48 47
52 42 46 47 45 42 40 42 44 38 39 31 41 40 48 51 53 56 59 61 60 60 61 61 61 60 58 56 55 54 50 50 51 47 43 42 42 45 43 44 46 46 46 46
51 41 45 42 48 47 41 46 46 47 46 43 45 44 55 58 60 59 60 60 59 60 61 63 64 64 61 58 56 56 53 51 50 44 40 36 38 38 40 42 42 43 43 44
45 42 41 35 47 45 37 45 48 50 52 49 41 51 59 58 58 58 60 62 61 61 62 62 62 62 62 62 58 55 54 51 47 45 37 33 35 34 34 38 41 40 38 39
47 45 42 36 42 26 46 58 56 51 53 56 55 56 58 60 61 63 63 61 60 60 58 57 57 58 58 60 59 56 52 47 42 36 33 34 33 31 33 33 32 32 32 32
53 46 36 32 35 42 48 53 49 46 47 57 55 57 59 61 61 59 60 58 55 51 38 44 49 52 54 54 53 47 44 41 37 33 32 32 32 31 31 30 31 31 31 31
50 49 40 35 30 27 44 56 58 56 39 57 58 57 57 58 47 51 55 56 52 49 41 37 41 49 49 47 48 40 36 34 33 33 32 32 31 31 29 31 31 31 32 31
40 40 34 36 33 40 55 58 58 36 42 57 57 57 57 52 55 53 51 44 48 42 42 48 39 38 39 46 42 36 34 33 33 33 31 30 31 29 30 31 31 31 31 31
38 35 34 36 31 29 58 56 45 52 57 58 58 58 56 56 42 36 38 39 44 48 49 50 45 38 36 40 38 34 33 33 33 31 30 29 29 30 31 31 31 31 31 30
33 41 38 42 41 54 59 57 60 61 58 58 58 59 58 53 38 36 37 38 41 48 52 53 50 41 38 38 37 33 33 32 31 31 29 29 30 31 32 31 30 31 31 31
45 51 43 43 51 55 57 59 61 62 60 62 61 60 59 37 35 35 38 39 43 50 51 52 47 40 37 38 36 35 32 32 31 31 30 30 31 30 32 34 33 33 32 32
38 39 45 46 52 54 57 58 60 60 62 61 61 60 57 52 48 44 42 47 49 52 51 51 47 43 39 38 36 33 33 33 32 31 31 31 31 31 32 34 34 34 34 34
47 42 36 41 53 53 55 59 61 58 59 60 59 57 56 58 55 53 51 48 51 51 50 47 46 43 39 37 34 34 35 35 34 33 32 31 31 31 32 32 30 29 30 29
MSLP
1007.24 1006.53 1004.73 1003.74 1003.53 1003.43 1002.93 1002.47 1001.76 1001.21 1000.68 1001.09 1001.24 1000.70 1000.23 1000.22 1000.56 1001.11 1001.07 1001.25 1001.28 1002.26 1003.99 1005.96 1007.89 1009.06 1009.99 1010.75 1011.58 1012.48 1013.27 1014.07 1014.40 1014.70 1015.01 1015.65 1016.15 1016.84 1017.48 1018.02 1018.50 1018.61 1018.69 1018.66
1005.67 1005.00 1004.26 1003.48 1003.32 1003.67 1003.42 1002.77 1002.02 1001.63 1001.25 1000.92 1000.61 1000.02 999.91 999.64 999.54 999.72 1000.46 1000.65 1001.08 1001.85 1003.34 1005.51 1007.70 1008.90 1009.92 1010.78 1011.68 1012.59 1013.55 1014.24 1014.32 1014.34 1014.53 1015.02 1015.88 1016.62 1017.35 1018.19 1018.78 1019.14 1019.23 1019.20
1004.32 1003.81 1003.44 1003.43 1003.47 1003.36 1003.40 1002.86 1002.19 1001.67 1001.20 1000.62 1000.59 999.27 998.92 998.53 998.47 998.62 999.02 1000.10 1000.46 1001.27 1002.69 1004.93 1007.47 1008.89 1010.11 1010.78 1011.43 1012.20 1013.08 1013.73 1013.89 1014.15 1015.09 1015.74 1016.53 1017.23 1017.63 1018.25 1018.69 1019.22 1019.47 1019.79
1004.33 1003.70 1003.43 1003.45 1003.07 1003.48 1002.48 1002.79 1002.48 1002.12 1002.12 1000.43 1000.02 997.36 997.39 996.86 996.57 997.23 998.30 999.11 999.87 1000.57 1002.23 1004.21 1006.81 1008.63 1009.87 1010.72 1011.59 1012.04 1012.58 1013.24 1013.88 1014.66 1014.93 1015.54 1015.81 1016.20 1016.76 1017.79 1018.69 1019.29 1019.71 1020.09
1003.33 1003.57 1003.72 1003.11 1002.80 1003.10 1002.84 1003.43 1003.52 1002.71 1002.07 1001.35 1000.20 999.43 996.27 996.44 996.25 996.18 997.54 998.65 999.80 1000.34 1001.62 1003.48 1006.04 1007.92 1009.41 1010.55 1011.72 1012.33 1012.64 1013.11 1013.95 1014.56 1014.68 1015.22 1015.11 1015.97 1017.27 1018.28 1019.03 1019.68 1020.10 1020.29
1003.68 1003.64 1003.66 1003.25 1003.01 1003.32 1003.88 1003.99 1004.20 1003.52 1002.71 1000.88 999.71 999.41 994.58 996.58 996.54 996.66 997.49 998.83 999.94 1000.56 1001.38 1003.02 1005.63 1007.94 1009.05 1010.19 1011.38 1012.20 1012.82 1013.23 1014.04 1014.62 1014.96 1015.26 1015.46 1016.48 1017.39 1018.21 1018.66 1019.21 1019.88 1020.41
1003.45 1002.99 1003.22 1003.75 1003.54 1003.79 1004.25 1004.27 1003.31 1002.43 1001.80 999.34 999.14 998.11 996.82 998.03 998.57 999.20 999.66 1000.16 1001.05 1001.93 1002.60 1003.62 1005.65 1007.79 1009.19 1010.40 1011.66 1012.55 1013.20 1013.52 1014.18 1014.74 1015.22 1015.64 1016.33 1016.97 1017.52 1018.11 1018.61 1019.45 1020.25 1020.67
1002.24 1001.95 1001.99 1002.63 1003.24 1003.12 1003.64 1003.62 1002.88 1001.87 1001.12 999.72 998.78 997.71 997.87 999.60 1000.44 1000.81 1001.70 1002.28 1002.47 1003.49 1004.32 1005.06 1006.25 1008.11 1009.49 1010.85 1012.03 1012.91 1013.33 1013.85 1014.56 1015.04 1015.56 1016.31 1017.01 1017.49 1018.16 1018.68 1019.42 1019.86 1020.52 1021.24
1002.54 1002.21 1002.75 1003.28 1003.32 1003.90 1003.41 1003.10 1003.50 1003.48 1003.38 1002.84 1000.63 999.69 999.38 1000.46 1001.84 1002.75 1003.17 1003.74 1004.14 1004.84 1005.44 1006.25 1006.99 1008.28 1009.67 1011.08 1012.18 1013.15 1013.48 1014.40 1015.18 1015.80 1016.43 1017.10 1017.53 1018.11 1018.81 1019.37 1019.95 1020.41 1020.74 1021.36
1004.38 1003.52 1003.44 1003.89 1004.73 1004.47 1004.37 1004.50 1004.10 1005.01 1004.67 1003.29 1001.49 1001.03 1001.08 1002.30 1002.65 1004.05 1004.55 1004.98 1005.52 1006.13 1006.59 1006.94 1007.51 1008.49 1009.58 1010.86 1012.19 1013.19 1013.73 1014.69 1015.59 1016.35 1017.03 1017.82 1018.40 1018.77 1019.45 1019.93 1020.18 1020.59 1021.19 1021.28
1005.66 1005.06 1004.34 1004.75 1004.88 1004.38 1004.91 1004.99 1005.27 1004.79 1005.15 1004.27 1003.21 1002.93 1004.06 1004.58 1004.66 1004.80 1005.50 1005.90 1006.21 1006.57 1006.94 1007.58 1008.05 1008.73 1009.77 1010.88 1012.25 1013.75 1014.65 1015.22 1016.07 1016.87 1017.51 1018.19 1018.81 1019.37 1019.78 1019.96 1020.21 1020.95 1021.08 1022.02
1006.53 1006.36 1005.54 1005.01 1005.07 1005.94 1005.76 1005.51 1005.69 1005.83 1005.71 1005.67 1005.40 1004.41 1005.39 1006.04 1006.37 1006.45 1006.44 1006.76 1006.79 1006.80 1007.27 1007.77 1008.21 1008.82 1009.76 1010.97 1012.26 1013.86 1014.98 1015.98 1016.94 1017.68 1018.09 1018.67 1019.36 1019.79 1019.90 1020.06 1020.45 1020.97 1021.51 1022.05
1008.20 1008.13 1007.07 1006.26 1006.70 1007.12 1007.09 1007.97 1008.30 1007.74 1007.43 1006.76 1006.42 1005.93 1006.49 1007.04 1007.06 1007.20 1007.50 1007.57 1007.18 1007.24 1007.51 1008.18 1008.62 1009.13 1010.00 1011.26 1012.50 1014.06 1015.37 1016.38 1016.94 1017.71 1018.23 1019.05 1019.47 1019.70 1020.19 1020.25 1020.55 1020.95 1021.43 1022.02
1009.75 1009.47 1009.03 1008.42 1009.52 1010.27 1009.92 1010.25 1010.41 1010.26 1009.41 1008.44 1007.45 1007.30 1007.66 1007.88 1007.85 1007.62 1007.53 1007.31 1007.36 1007.32 1007.52 1008.04 1008.88 1009.70 1010.51 1011.59 1012.66 1014.14 1014.98 1015.90 1016.78 1017.14 1018.28 1019.00 1019.34 1020.00 1020.00 1020.41 1020.90 1021.32 1021.78 1021.91
1009.64 1009.29 1009.24 1009.23 1009.72 1010.51 1010.41 1009.96 1009.70 1010.21 1009.90 1009.51 1008.27 1008.01 1007.14 1007.13 1006.94 1006.87 1006.79 1006.75 1006.93 1006.94 1007.04 1007.56 1008.21 1009.29 1010.20 1011.28 1012.17 1013.22 1014.41 1014.82 1015.89 1016.99 1017.70 1018.54 1019.62 1020.11 1020.23 1020.64 1021.19 1021.57 1021.73 1022.25
1009.29 1009.03 1009.30 1008.79 1009.13 1008.96 1009.20 1008.85 1008.64 1008.22 1007.90 1008.19 1007.94 1006.86 1006.50 1006.24 1006.17 1005.94 1005.96 1006.24 1006.56 1006.91 1007.10 1007.25 1007.47 1008.13 1009.15 1010.18 1011.13 1012.09 1013.40 1014.52 1015.62 1017.02 1017.93 1018.86 1019.72 1020.12 1020.56 1021.01 1021.63 1021.88 1022.16 1022.51
1008.83 1008.99 1008.91 1008.49 1008.16 1007.83 1007.50 1006.19 1006.49 1006.04 1006.11 1006.21 1006.01 1005.56 1005.33 1004.88 1004.81 1005.20 1005.43 1005.74 1006.14 1006.67 1007.08 1007.56 1007.84 1008.15 1008.51 1008.92 1010.25 1011.33 1012.56 1013.91 1015.48 1016.65 1018.42 1019.32 1020.04 1020.74 1021.08 1021.61 1021.96 1022.45 1022.70 1022.89
1007.97 1008.15 1008.54 1008.15 1007.56 1006.58 1005.55 1004.80 1004.45 1004.65 1004.83 1004.39 1004.45 1004.54 1004.56 1004.55 1004.58 1004.96 1005.43 1006.28 1006.98 1007.66 1008.55 1009.09 1009.08 1009.12 1009.53 1009.63 1010.29 1011.49 1012.92 1014.31 1015.49 1017.04 1018.30 1019.34 1020.17 1020.89 1021.65 1022.01 1022.73 1023.21 1023.62 1023.85
1007.34 1007.44 1007.96 1007.69 1006.54 1005.41 1004.56 1003.55 1004.03 1004.27 1004.23 1003.95 1003.97 1003.89 1004.18 1004.43 1004.78 1005.47 1006.61 1007.86 1008.74 1009.58 1010.63 1010.84 1010.70 1010.53 1010.53 1011.01 1011.52 1012.66 1013.80 1015.05 1016.23 1017.37 1018.38 1019.33 1020.18 1020.95 1021.64 1022.39 1023.09 1023.50 1023.85 1024.17
1006.75 1007.18 1007.44 1007.30 1005.95 1004.43 1003.50 1003.04 1003.39 1003.53 1003.46 1003.60 1003.65 1003.67 1004.01 1004.63 1005.31 1006.60 1007.97 1008.77 1009.65 1010.24 1010.94 1011.27 1011.29 1011.03 1011.37 1011.97 1012.74 1013.63 1014.58 1015.54 1016.47 1017.37 1018.41 1019.46 1020.23 1020.90 1021.69 1022.32 1022.83 1023.49 1023.88 1024.13
1005.41 1005.91 1006.19 1005.95 1005.13 1003.80 1002.43 1002.42 1003.42 1003.79 1003.12 1003.12 1003.60 1004.06 1004.60 1005.49 1006.62 1008.11 1009.02 1009.79 1010.22 1010.87 1011.12 1011.20 1011.96 1011.83 1011.93 1012.22 1012.92 1013.98 1014.99 1015.78 1016.59 1017.50 1018.36 1019.31 1020.07 1021.00 1021.74 1022.36 1022.88 1023.24 1023.81 1024.47
1004.30 1004.78 1004.73 1004.99 1004.31 1003.06 1001.99 1001.92 1002.30 1002.63 1003.05 1003.25 1003.79 1004.32 1005.26 1006.36 1008.13 1009.30 1009.82 1010.19 1010.30 1010.28 1010.56 1010.84 1011.59 1012.43 1012.88 1012.95 1013.32 1014.00 1015.02 1015.91 1016.82 1017.72 1018.44 1019.34 1020.18 1021.04 1021.62 1022.05 1022.70 1023.27 1023.85 1024.31
1004.28 1003.96 1003.17 1002.86 1002.12 1002.07 1001.48 1001.29 1001.88 1002.57 1002.60 1003.05 1003.54 1004.31 1005.30 1006.69 1008.32 1009.35 1009.78 1010.21 1010.32 1009.98 1009.95 1010.41 1011.03 1012.32 1013.09 1013.54 1013.95 1014.57 1014.97 1015.87 1016.90 1017.72 1018.59 1019.32 1020.12 1020.89 1021.53 1022.02 1022.61 1023.14 1023.75 1023.96
1003.64 1003.24 1002.70 1002.83 1001.19 1000.94 1001.25 1001.79 1002.03 1002.36 1002.37 1002.65 1003.34 1004.17 1004.98 1006.84 1008.19 1008.85 1009.40 1009.78 1009.97 1009.61 1009.59 1010.16 1010.95 1011.89 1012.71 1013.48 1014.10 1014.56 1015.30 1015.91 1016.74 1017.46 1018.26 1019.23 1019.94 1020.71 1021.50 1021.94 1022.46 1022.62 1023.10 1023.50
1004.99 1004.47 1002.54 1001.75 1001.41 1001.54 1001.11 1001.70 1001.77 1002.13 1002.24 1002.59 1003.08 1003.74 1004.69 1006.09 1007.02 1007.93 1008.63 1008.91 1008.99 1008.92 1009.26 1009.91 1010.77 1011.58 1012.33 1013.29 1013.95 1014.71 1015.25 1015.87 1016.56 1017.37 1018.27 1018.98 1019.73 1020.46 1020.95 1021.58 1022.00 1022.36 1022.99 1023.23
1003.93 1003.33 1002.69 1001.34 1001.05 1000.99 1001.03 1001.31 1001.46 1001.79 1001.90 1002.21 1002.92 1003.42 1004.34 1004.96 1005.65 1006.66 1007.27 1008.20 1008.24 1008.48 1009.11 1009.69 1010.51 1011.44 1012.32 1013.41 1014.08 1014.52 1015.09 1015.63 1016.25 1017.04 1017.95 1018.72 1019.47 1020.22 1020.86 1021.47 1022.33 1023.13 1023.39 1023.82
Wind_Speed
16 12 18 19 18 17 18 16 19 19 18 5 14 19 17 15 17 16 17 19 18 18 18 17 14 13 13 13 15 15 14 13 10 9 8 8 7 7 6 6 7 7 6 6
12 19 20 17 14 12 17 18 19 20 20 18 17 21 19 18 20 20 20 19 18 18 19 20 18 16 15 14 15 14 14 13 10 8 7 7 7 6 7 6 7 7 7 8
22 16 17 14 16 19 19 21 19 21 20 21 18 26 26 22 27 23 21 21 19 19 20 21 19 18 16 15 15 15 15 15 10 9 7 7 7 7 6 7 6 7 7 7
21 24 24 23 22 18 22 18 19 16 16 16 18 20 19 16 12 24 22 20 20 19 19 21 20 18 16 15 14 15 15 14 10 10 9 11 8 8 7 5 7 6 7 6
18 11 15 21 25 21 22 12 13 15 16 19 20 16 18 17 14 19 15 15 18 17 18 21 20 18 16 14 12 13 13 13 12 12 10 9 8 9 7 6 8 7 6 7
23 21 11 13 14 15 16 10 14 13 13 18 17 19 26 9 6 8 7 10 9 11 11 17 19 16 15 14 14 13 13 13 12 11 9 9 8 10 8 8 6 5 5 5
24 26 24 17 15 12 16 14 11 13 12 18 11 16 16 11 8 9 6 6 4 5 8 9 17 15 14 14 13 11 13 12 11 10 9 8 9 9 9 8 6 6 4 4
11 13 20 20 20 16 15 19 11 11 14 15 14 20 3 10 9 8 6 4 1 3 1 5 11 13 13 13 13 12 13 12 12 11 10 9 9 6 6 6 5 4 5 4
7 8 7 4 12 18 14 18 18 16 15 9 9 18 2 10 10 7 8 5 5 2 5 5 9 12 12 13 13 12 13 12 11 11 10 10 8 9 8 8 7 5 6 5
6 10 7 4 4 11 18 4 10 7 7 13 14 18 4 7 5 6 7 7 5 2 3 6 8 12 12 13 13 13 12 12 12 11 10 8 9 9 8 7 8 7 6 6
12 13 8 4 11 16 12 17 11 8 14 9 12 5 6 9 7 8 8 6 6 4 0 5 7 9 11 12 12 10 10 12 11 10 10 10 9 9 9 8 8 6 6 5
3 6 12 18 2 6 11 13 18 12 13 13 13 15 9 6 5 7 7 6 8 5 5 2 7 9 11 11 12 12 10 10 10 10 9 9 9 8 8 8 8 7 6 5
2 4 9 16 6 10 9 3 10 9 8 16 13 7 4 1 3 3 6 8 7 3 3 1 4 8 10 11 11 11 10 11 12 10 11 9 7 8 8 9 9 8 8 6
3 4 6 10 2 1 1 3 2 4 5 8 12 13 7 10 12 15 14 11 11 8 5 1 4 7 9 12 13 14 15 13 13 14 12 10 9 9 9 8 8 8 7 7
7 13 14 15 12 12 12 15 14 13 12 8 12 12 18 17 14 17 15 12 12 11 11 12 9 11 12 13 14 14 14 16 15 12 10 10 9 9 8 9 8 7 7 6
13 11 11 16 16 16 16 19 16 18 19 18 20 23 19 18 14 15 14 12 13 10 11 10 12 13 13 14 15 16 16 15 15 13 10 10 9 9 8 8 7 8 8 7
18 11 13 15 17 16 15 21 20 23 21 20 18 21 19 15 12 13 12 12 9 9 7 7 7 8 11 14 14 15 14 14 15 14 13 11 10 9 7 8 10 7 7 9
17 19 14 12 10 16 14 19 13 9 16 15 18 18 17 16 10 10 5 7 10 8 7 5 5 4 5 5 9 9 13 13 11 12 13 12 12 10 9 7 8 7 7 7
18 15 12 12 15 17 14 16 12 13 14 15 15 16 15 15 12 8 5 6 6 5 1 4 5 5 2 5 6 10 10 11 11 12 13 12 12 12 11 11 10 9 8 8
24 19 14 9 16 19 18 17 2 3 13 16 17 16 14 12 9 4 6 5 4 3 1 3 3 4 6 7 8 7 8 10 12 13 13 12 12 12 12 11 11 9 7 8
21 19 20 18 17 16 20 10 9 12 5 5 3 6 7 6 3 6 3 2 1 3 4 4 3 0 6 9 11 9 9 11 10 11 13 13 12 12 12 12 9 9 9 8
18 17 16 19 19 21 14 11 19 10 5 7 6 6 7 5 5 3 4 5 4 5 6 7 5 4 1 5 8 10 10 8 11 12 12 12 12 10 10 12 10 10 9 9
14 13 13 14 15 6 7 8 9 14 10 10 8 8 9 4 5 6 5 6 6 7 7 6 5 6 6 7 7 8 9 13 12 12 12 12 13 12 12 11 11 10 9 8
12 18 14 12 12 10 11 9 10 14 13 9 9 10 9 7 6 7 6 6 8 8 7 7 7 8 8 8 7 8 11 12 13 14 13 12 12 12 11 9 9 8 8 8
2 12 15 16 13 3 7 13 14 15 14 12 12 11 10 9 9 10 9 9 9 8 7 7 7 8 9 9 9 11 11 13 13 13 12 13 11 12 11 9 8 7 6 5
12 11 7 10 11 14 13 13 16 16 16 15 15 13 10 12 11 11 9 8 9 8 7 7 7 7 8 9 10 12 14 15 15 14 11 10 10 9 10 9 8 9 10 10
Wind_Direction
196 219 224 232 231 250 274 286 286 286 286 254 265 264 259 257 211 232 237 238 228 213 202 184 179 180 187 167 171 168 157 161 159 159 154 149 140 127 116 102 98 87 76 72
209 233 249 257 262 274 265 263 261 269 273 272 262 259 260 256 248 232 230 231 231 214 195 178 183 185 192 179 176 172 168 170 180 169 167 144 138 130 114 106 95 79 70 57
241 239 237 253 252 242 251 257 265 277 289 286 268 267 258 247 246 241 222 236 226 222 200 179 188 192 192 186 183 177 176 180 182 145 126 129 118 133 143 141 115 86 79 69
262 254 248 252 247 255 253 250 262 256 269 269 277 285 276 281 247 217 227 215 231 213 205 181 188 191 194 191 187 187 177 179 166 167 162 165 167 166 141 129 115 108 93 77
234 226 243 247 251 246 259 289 287 266 263 275 260 265 268 263 249 238 198 226 222 224 198 188 185 189 190 185 185 200 180 179 163 186 174 181 189 114 138 127 139 110 101 81
243 264 245 260 263 253 275 259 246 253 256 256 258 252 276 299 334 312 189 165 218 228 214 187 170 183 188 182 185 195 186 182 173 186 186 192 157 154 153 154 151 135 117 104
237 244 244 227 254 230 240 220 242 225 214 245 260 247 248 139 102 68 99 153 174 222 223 190 162 187 188 180 185 189 196 184 174 177 174 170 155 163 157 160 141 142 129 109
260 223 217 212 217 236 217 223 234 251 255 275 293 240 249 78 70 78 60 24 99 118 182 205 182 187 188 177 182 191 194 173 172 167 156 146 149 151 131 124 133 114 111 100
299 249 32 30 237 226 249 217 252 282 284 287 264 285 210 109 97 67 63 68 70 106 150 194 184 183 185 181 186 193 187 166 163 161 152 156 149 144 132 125 130 120 122 124
282 276 224 102 237 248 248 7 234 200 235 234 252 257 329 47 90 120 93 89 100 135 191 201 202 182 187 185 181 191 176 169 167 157 150 150 144 132 133 136 131 119 127 122
271 249 246 190 218 242 202 238 242 271 228 274 278 282 36 63 41 74 86 84 78 78 89 204 209 186 190 173 176 181 181 169 154 158 151 147 140 143 146 138 126 141 121 149
340 303 258 255 37 300 291 292 231 236 242 246 253 269 95 77 74 35 37 28 3 22 37 185 192 183 180 175 170 178 174 154 164 157 150 146 145 154 146 136 135 138 137 145
103 250 265 246 249 218 228 20 326 315 296 249 247 236 97 98 264 322 304 303 304 348 26 65 206 192 185 182 180 157 167 178 172 161 156 151 144 163 161 150 147 150 152 141
211 217 261 273 103 265 339 357 21 352 279 286 265 302 245 275 307 301 289 276 271 275 325 61 203 198 199 194 181 184 183 180 183 160 164 161 170 174 156 144 152 154 152 148
230 245 248 243 217 210 236 243 225 228 235 230 273 268 272 279 269 268 274 276 264 264 246 246 228 199 198 203 196 191 190 182 180 170 165 152 163 164 138 150 155 152 152 147
215 243 254 250 233 227 238 249 249 247 243 233 252 259 264 270 268 267 269 264 266 265 256 265 264 212 213 208 204 197 190 188 176 173 154 139 130 158 160 144 155 156 145 139
219 232 241 249 246 238 239 247 248 253 250 242 244 260 275 262 236 237 263 273 262 247 263 301 252 262 259 212 197 205 190 166 173 164 149 143 150 137 131 145 167 153 133 121
227 222 231 245 239 238 243 256 276 294 284 253 242 244 259 282 291 278 321 300 306 354 344 336 333 297 275 249 194 184 160 163 148 143 149 153 146 136 148 115 118 124 108 118
235 238 235 236 234 247 252 241 211 235 255 261 266 262 266 263 272 275 57 67 59 75 110 323 319 305 222 194 157 143 160 151 149 155 156 153 148 146 147 146 151 144 146 139
229 225 236 226 231 245 254 272 35 320 250 242 249 255 263 261 251 254 124 102 120 123 169 227 273 174 161 141 153 143 136 151 162 161 157 149 147 146 146 154 154 149 149 139
213 211 222 231 246 256 256 230 146 221 263 165 216 258 257 250 281 98 118 89 59 223 244 241 219 239 161 164 153 152 159 175 161 152 145 146 145 143 152 152 151 149 153 153
209 207 217 227 238 240 249 248 201 231 245 196 209 234 225 234 96 164 220 239 257 256 247 213 191 183 161 169 163 161 172 151 144 145 145 144 141 149 154 151 150 155 159 161
210 251 204 205 216 233 249 237 206 240 238 209 238 229 223 186 188 190 229 229 244 248 243 220 203 173 185 181 174 166 150 145 147 147 146 144 146 150 158 155 158 158 166 168
217 222 232 244 235 238 194 208 213 224 228 235 220 230 216 171 211 203 197 202 227 231 220 206 189 181 184 185 181 162 149 147 149 148 144 146 151 152 162 165 168 163 174 175
216 337 237 234 235 189 211 221 242 235 245 243 249 230 233 197 220 212 211 213 225 224 202 203 209 200 187 178 169 157 157 155 151 146 148 153 157 160 166 173 177 167 172 178
254 258 243 242 241 244 236 244 243 246 243 235 242 240 226 243 231 229 213 222 221 213 204 197 198 203 176 183 175 171 167 166 160 158 157 161 155 167 169 164 140 52 111 84